Location: Cruquius
(52.3348°N, 4.6319°E)
Time: 23:15:26
(UTC+00:00)

Cosmos 1503 Rocket - Pass Details

Date: 12 May 2021
Orbit: 752 x 791 km, 74.0° (Epoch: 24 June)

Event Time Altitude Azimuth Distance (km) Brightness Sun altitude
Rises 20:08:10 0° 203° (SSW) 3,194 7.0 -6.0°
Reaches altitude 10° 20:10:31 10° 203° (SSW) 2,276 6.3 -6.3°
Maximum altitude 20:15:41 89° 116° (ESE) 766 4.0 -6.9°
Drops below altitude 10° 20:20:56 10° 26° (NNE) 2,312 6.7 -7.4°
Sets 20:23:20 0° 26° (NNE) 3,248 7.5 -7.7°
